Temp
4 3 3 3 3 3 3 3 4 4 4 5 5 5 6 6 7 7 7 8 8 8 8 7 7 6 6 6 6 6 5 5 4 4 4 4 3 4 4 5 3 2 5 4 3 3 4
3 3 3 3 2 2 2 3 3 3 3 4 4 5 5 6 6 7 7 7 7 7 7 7 6 6 5 6 5 6 5 4 4 4 4 4 3 3 1 2 1 2 1 1 1 2 3
3 3 2 2 2 2 2 2 3 3 3 4 4 4 5 6 6 6 7 7 7 7 7 6 6 5 5 4 4 4 4 4 4 3 3 2 2 0 -0 0 1 1 1 1 2 3 3
3 2 2 2 2 2 2 2 3 3 3 3 4 4 5 6 6 6 6 6 6 6 5 5 5 5 4 4 4 3 2 2 2 2 2 2 2 1 1 0 -1 0 -0 -0 2 2 3
2 2 2 2 2 2 2 2 2 3 3 3 4 4 5 6 5 5 5 5 5 5 5 4 4 4 4 3 3 3 2 1 1 0 0 0 0 0 -0 -1 -1 -1 -1 1 2 2 2
2 2 2 1 1 1 2 2 2 2 2 3 3 4 4 4 4 4 4 4 4 4 4 3 4 3 3 3 2 1 1 0 0 -0 -1 -1 -1 -1 -2 -2 -1 -1 0 1 2 2 2
2 2 1 1 1 1 1 1 2 2 2 3 3 3 3 3 3 3 3 3 4 4 4 3 2 2 1 1 0 0 -1 -1 -1 -2 -1 -2 -2 -2 -0 -1 -0 1 1 1 2 2 2
1 1 1 1 1 1 1 1 1 1 2 2 3 2 2 1 2 2 2 2 2 2 4 3 3 2 0 -0 -1 -1 -2 -2 -2 -2 -2 -3 -3 -1 -2 -2 -1 -0 0 0 0 1 1
1 1 1 1 1 1 1 1 1 1 1 1 1 1 1 0 1 1 1 2 1 1 2 3 1 0 -1 -1 -1 -0 -1 -1 -3 -3 -3 -3 -2 -2 -1 -2 -2 -1 -1 -1 -0 0 0
1 1 1 1 1 1 1 1 1 1 1 1 0 0 0 0 1 1 1 1 1 0 1 -0 -0 -1 -1 -1 -1 -1 -1 -1 -2 -2 -3 -3 -2 -2 -2 -1 -2 -2 -1 -1 -1 -1 -1
1 1 0 0 0 0 0 0 1 1 0 0 -1 -1 -1 -1 -1 -1 -0 -1 -1 -0 -2 -1 -1 -1 -1 -1 -2 -1 -1 -1 -2 -3 -2 -2 -2 -2 -2 -2 -2 -2 -2 -2 -2 -2 -3
0 0 -0 -0 -0 -0 0 0 0 0 0 -0 -1 -1 -1 -1 -1 -1 -1 -1 -1 -1 -2 -1 -1 -2 -3 -2 -2 -2 -2 -2 -2 -3 -3 -2 -3 -3 -2 -3 -3 -3 -3 -3 -3 -4 -5
-0 -0 -0 -1 -1 -0 -0 -0 -0 -1 -1 -1 -1 -2 -2 -2 -2 -2 -2 -2 -2 -2 -1 -3 -3 -4 -3 -3 -3 -4 -3 -4 -4 -4 -3 -3 -3 -3 -3 -4 -4 -4 -4 -4 -5 -6 -4
-1 -1 -1 -1 -1 -1 -1 -1 -2 -2 -1 -1 -2 -2 -2 -3 -3 -3 -4 -4 -4 -1 -2 -4 -4 -4 -4 -4 -4 -5 -5 -5 -5 -5 -5 -5 -4 -4 -5 -5 -4 -4 -4 -4 -5 -5 -5
-1 -1 -1 -1 -1 -2 -2 -2 -3 -3 -3 -2 -2 -3 -3 -4 -5 -5 -5 -5 -4 -6 -6 -6 -5 -4 -3 -5 -5 -6 -5 -5 -6 -5 -6 -7 -6 -6 -5 -5 -5 -5 -5 -4 -5 -4 -5
-1 -1 -1 -2 -2 -3 -3 -3 -4 -4 -4 -4 -4 -4 -5 -6 -5 -6 -6 -6 -7 -8 -7 -7 -8 -6 -6 -6 -7 -7 -6 -7 -6 -6 -7 -7 -7 -7 -6 -6 -6 -6 -6 -6 -6 -9 -7
-1 -2 -2 -2 -3 -3 -4 -4 -4 -5 -5 -6 -6 -6 -6 -7 -6 -7 -7 -7 -7 -7 -9 -9 -9 -9 -8 -8 -8 -8 -8 -8 -7 -7 -7 -7 -7 -8 -7 -7 -7 -7 -7 -7 -7 -7 -12
-2 -2 -3 -3 -4 -4 -5 -5 -5 -6 -7 -7 -7 -7 -7 -8 -6 -8 -8 -8 -8 -9 -9 -9 -10 -10 -10 -10 -10 -9 -8 -9 -9 -9 -9 -8 -9 -8 -8 -9 -8 -8 -8 -9 -8 -7 -8
-3 -3 -4 -4 -4 -5 -5 -6 -6 -7 -8 -8 -8 -8 -9 -10 -9 -9 -9 -9 -9 -9 -9 -10 -10 -11 -11 -11 -11 -10 -10 -10 -10 -10 -10 -10 -10 -10 -8 -9 -8 -9 -9 -9 -9 -9 -10
-3 -4 -4 -5 -5 -5 -6 -7 -7 -8 -8 -9 -10 -11 -10 -10 -10 -10 -10 -10 -10 -11 -10 -10 -10 -11 -12 -11 -11 -11 -11 -12 -11 -11 -11 -12 -11 -11 -11 -9 -10 -10 -10 -10 -10 -10 -9
-4 -4 -5 -5 -5 -5 -7 -7 -8 -9 -10 -11 -11 -11 -11 -11 -11 -11 -11 -11 -10 -11 -11 -11 -11 -11 -12 -12 -12 -12 -12 -12 -12 -12 -12 -13 -12 -11 -11 -11 -10 -10 -11 -10 -10 -10 -11
-5 -5 -5 -5 -6 -7 -8 -8 -9 -10 -11 -12 -12 -12 -11 -12 -11 -11 -11 -11 -11 -11 -11 -12 -12 -12 -13 -12 -12 -13 -12 -12 -13 -12 -12 -13 -12 -12 -11 -11 -11 -11 -11 -11 -11 -11 -11
-4 -5 -6 -7 -7 -8 -8 -8 -9 -11 -12 -12 -12 -12 -12 -12 -12 -12 -11 -11 -11 -11 -11 -12 -13 -12 -12 -12 -13 -13 -12 -12 -13 -13 -13 -13 -13 -12 -12 -11 -11 -11 -10 -10 -11 -11 -11
-5 -6 -6 -7 -8 -8 -8 -9 -9 -12 -12 -12 -12 -12 -12 -12 -12 -11 -11 -12 -11 -11 -11 -12 -12 -13 -13 -13 -13 -13 -12 -11 -12 -13 -13 -13 -13 -13 -12 -11 -14 -10 -10 -10 -10 -10 -10
-6 -6 -7 -7 -8 -8 -9 -10 -11 -12 -12 -12 -12 -12 -12 -12 -12 -12 -12 -11 -12 -12 -12 -12 -12 -13 -13 -13 -14 -13 -12 -12 -13 -13 -13 -13 -14 -13 -12 -11 -10 -10 -10 -10 -11 -11 -11
-6 -6 -7 -8 -8 -9 -10 -11 -11 -12 -12 -12 -12 -12 -12 -12 -12 -12 -12 -12 -12 -12 -12 -13 -12 -13 -13 -14 -14 -13 -13 -12 -13 -13 -13 -13 -13 -13 -12 -12 -12 -11 -11 -11 -11 -11 -11
-6 -7 -7 -8 -9 -10 -10 -11 -12 -13 -13 -12 -12 -12 -12 -12 -12 -12 -12 -12 -12 -12 -13 -13 -13 -13 -14 -14 -14 -13 -13 -13 -13 -13 -13 -13 -14 -13 -13 -12 -11 -11 -11 -11 -11 -12 -12
-6 -7 -8 -9 -10 -11 -13 -13 -13 -13 -12 -13 -12 -12 -12 -12 -12 -12 -13 -13 -13 -13 -13 -13 -13 -13 -14 -14 -14 -13 -13 -13 -13 -13 -13 -13 -13 -13 -13 -12 -13 -12 -12 -12 -12 -12 -13
-7 -7 -8 -10 -12 -12 -12 -13 -12 -13 -12 -12 -12 -12 -12 -13 -13 -13 -13 -13 -13 -14 -14 -14 -14 -14 -14 -14 -14 -14 -14 -13 -13 -13 -13 -13 -13 -13 -13 -12 -13 -13 -13 -13 -13 -13 -13
Height
3151 3149 3146 3143 3139 3136 3132 3128 3123 3118 3114 3110 3104 3099 3094 3090 3084 3079 3074 3069 3065 3061 3057 3052 3048 3046 3043 3042 3042 3042 3044 3045 3045 3046 3047 3048 3047 3048 3045 3047 3050 3045 3047 3049 3051 3052 3052
3150 3147 3145 3142 3138 3134 3129 3125 3119 3115 3110 3105 3100 3095 3090 3084 3079 3074 3069 3064 3059 3055 3051 3046 3042 3039 3037 3035 3033 3033 3034 3037 3038 3039 3039 3041 3042 3043 3041 3042 3043 3042 3042 3042 3044 3044 3046
3149 3147 3144 3140 3136 3131 3127 3121 3116 3111 3106 3101 3095 3090 3084 3078 3073 3067 3062 3057 3052 3047 3043 3039 3035 3031 3029 3032 3027 3027 3028 3028 3029 3030 3031 3033 3035 3035 3036 3039 3037 3036 3036 3034 3034 3037 3037
3149 3145 3141 3137 3133 3129 3124 3119 3114 3108 3102 3096 3091 3085 3078 3072 3066 3060 3054 3049 3044 3041 3037 3033 3030 3026 3021 3023 3020 3019 3020 3021 3023 3024 3026 3026 3027 3027 3028 3031 3031 3032 3030 3028 3028 3030 3031
3146 3142 3139 3135 3130 3126 3121 3117 3112 3106 3100 3093 3087 3080 3073 3067 3059 3053 3046 3041 3038 3035 3031 3026 3024 3020 3015 3015 3015 3014 3013 3013 3015 3017 3018 3020 3022 3020 3023 3024 3027 3025 3021 3022 3023 3026 3025
3145 3141 3136 3132 3127 3123 3118 3113 3108 3102 3095 3088 3080 3073 3065 3059 3053 3048 3041 3036 3032 3029 3026 3022 3019 3018 3015 3011 3010 3010 3009 3009 3008 3010 3012 3013 3014 3014 3015 3016 3009 3014 3018 3017 3018 3021 3019
3142 3139 3134 3129 3124 3119 3113 3107 3102 3096 3090 3083 3076 3068 3060 3054 3049 3043 3040 3034 3030 3023 3021 3018 3014 3011 3007 3006 3004 3003 3004 3005 3004 3004 3005 3007 3007 3002 3006 3009 3011 3013 3011 3013 3015 3018 3015
3140 3135 3130 3126 3121 3116 3110 3104 3097 3091 3084 3078 3071 3063 3056 3049 3044 3039 3034 3029 3023 3020 3011 3011 3007 3003 3002 3001 3000 2999 3000 3002 3001 3002 3005 3006 3000 3004 3005 3007 3009 3011 3009 3006 3010 3013 3009
3137 3132 3127 3123 3118 3112 3106 3101 3094 3088 3081 3073 3066 3060 3054 3049 3042 3036 3031 3026 3021 3015 3010 3003 3000 2999 3000 3000 2997 2997 2997 2996 2997 2997 2998 2999 2998 3000 2999 2999 3001 3002 3005 3004 3007 3005 3005
3135 3130 3125 3120 3115 3109 3104 3097 3091 3084 3077 3068 3062 3056 3050 3046 3042 3035 3029 3025 3019 3014 3005 3000 2997 2997 2998 2996 2997 2995 2994 2997 2995 2995 2996 2995 2994 2995 2995 2995 2998 2997 3000 3000 3000 3002 3003
3131 3126 3121 3116 3110 3104 3099 3093 3086 3079 3072 3064 3057 3051 3047 3040 3037 3032 3027 3022 3018 3012 3008 3001 2997 2996 2996 2997 2995 2995 2994 2993 2993 2993 2995 2992 2989 2990 2991 2991 2993 2994 2996 2997 2997 2999 2999
3127 3122 3117 3111 3106 3100 3094 3088 3082 3076 3069 3062 3054 3049 3044 3039 3034 3029 3024 3019 3016 3014 3003 2998 2995 2995 2994 2993 2992 2991 2991 2990 2990 2988 2988 2987 2986 2987 2986 2988 2989 2991 2993 2994 2993 2995 2995
3122 3118 3112 3106 3100 3094 3087 3082 3076 3070 3064 3058 3052 3047 3040 3035 3031 3027 3021 3018 3016 3008 3000 2997 2994 2992 2991 2990 2989 2986 2985 2984 2986 2985 2982 2982 2980 2981 2982 2983 2985 2987 2990 2992 2993 2993 2986
3118 3113 3107 3101 3094 3087 3080 3073 3066 3060 3054 3050 3046 3041 3035 3030 3025 3019 3017 3015 3010 3002 2997 2993 2991 2990 2988 2986 2985 2983 2982 2982 2983 2983 2981 2981 2979 2976 2976 2977 2981 2982 2984 2985 2984 2984 2982
3114 3108 3102 3095 3088 3080 3073 3066 3058 3051 3045 3039 3035 3034 3028 3022 3017 3013 3011 3009 3004 2998 2996 2991 2987 2986 2986 2984 2985 2983 2981 2981 2979 2979 2981 2979 2976 2974 2974 2975 2979 2979 2981 2982 2982 2981 2981
3109 3104 3096 3089 3081 3073 3066 3059 3052 3045 3036 3029 3022 3018 3017 3014 3008 3006 3005 3003 3000 2996 2993 2992 2990 2988 2984 2983 2983 2982 2979 2977 2976 2975 2975 2975 2974 2972 2973 2975 2976 2977 2979 2981 2982 2986 2982
3104 3096 3089 3082 3074 3066 3059 3052 3045 3038 3030 3022 3014 3007 3009 3005 3001 3000 3000 2997 2995 2994 2990 2990 2988 2984 2984 2981 2980 2979 2977 2975 2973 2972 2972 2971 2971 2970 2971 2971 2971 2974 2975 2977 2978 2979 2981
3096 3090 3082 3074 3066 3059 3052 3045 3038 3031 3024 3015 3008 3002 3001 2998 3000 2997 2996 2995 2993 2990 2988 2986 2983 2981 2979 2978 2976 2976 2975 2972 2970 2969 2970 2969 2967 2966 2968 2968 2970 2970 2972 2973 2973 2975 2976
3089 3082 3074 3067 3059 3052 3045 3038 3031 3024 3018 3008 3002 2997 2996 2995 2996 2993 2992 2991 2988 2986 2985 2981 2979 2977 2976 2975 2975 2972 2970 2968 2968 2967 2967 2966 2966 2965 2966 2968 2967 2968 2969 2970 2971 2972 2973
3082 3074 3066 3059 3052 3044 3037 3030 3024 3018 3012 3006 3000 2995 2994 2992 2992 2990 2986 2984 2984 2981 2979 2977 2976 2973 2972 2972 2972 2969 2968 2966 2966 2965 2964 2964 2964 2964 2964 2963 2966 2967 2967 2968 2969 2970 2970
3073 3066 3058 3050 3041 3035 3028 3021 3016 3010 3005 3001 2996 2992 2990 2987 2985 2985 2984 2978 2977 2976 2974 2973 2970 2970 2969 2966 2965 2964 2964 2963 2964 2962 2961 2961 2960 2961 2959 2959 2959 2960 2962 2963 2963 2964 2965
3066 3058 3050 3042 3034 3027 3021 3013 3008 3004 2999 2995 2993 2989 2985 2981 2979 2978 2975 2973 2970 2970 2970 2968 2966 2965 2965 2962 2961 2959 2958 2958 2958 2958 2958 2958 2955 2955 2954 2954 2954 2954 2955 2955 2956 2959 2960
3057 3049 3041 3034 3027 3020 3013 3007 3003 2999 2994 2988 2984 2982 2978 2974 2973 2973 2970 2966 2965 2963 2962 2962 2962 2960 2959 2957 2955 2953 2952 2952 2951 2951 2952 2953 2953 2953 2950 2950 2951 2951 2948 2946 2950 2954 2957
3049 3042 3034 3027 3020 3014 3007 3001 2996 2994 2992 2986 2982 2977 2973 2967 2968 2965 2963 2961 2960 2958 2955 2955 2956 2955 2955 2952 2949 2948 2946 2944 2943 2943 2945 2947 2949 2951 2949 2949 2952 2946 2946 2946 2949 2952 2953
3042 3035 3028 3021 3013 3005 2999 2995 2990 2987 2985 2981 2978 2973 2968 2962 2963 2960 2958 2956 2951 2950 2950 2949 2951 2950 2949 2948 2946 2943 2940 2939 2937 2938 2939 2941 2944 2946 2946 2945 2945 2943 2944 2945 2947 2950 2950
3036 3028 3021 3013 3006 2998 2992 2987 2983 2980 2978 2974 2972 2968 2964 2959 2959 2956 2953 2951 2948 2946 2943 2946 2946 2946 2946 2945 2944 2941 2939 2938 2938 2937 2936 2936 2940 2945 2945 2944 2943 2942 2943 2944 2945 2946 2947
3029 3020 3011 3002 2994 2987 2981 2977 2973 2971 2969 2967 2965 2963 2959 2953 2953 2952 2949 2948 2946 2944 2944 2944 2943 2943 2943 2942 2942 2940 2938 2938 2938 2937 2936 2937 2940 2941 2943 2943 2942 2941 2942 2942 2945 2950 2946
3022 3012 3002 2993 2985 2977 2972 2969 2966 2963 2962 2960 2960 2958 2955 2951 2950 2948 2945 2944 2943 2942 2942 2943 2943 2941 2940 2941 2941 2939 2938 2937 2937 2937 2937 2938 2939 2940 2941 2941 2941 2939 2940 2942 2942 2942 2943
3015 3005 2994 2984 2977 2972 2968 2964 2961 2959 2957 2956 2954 2953 2949 2950 2948 2944 2941 2940 2940 2941 2940 2940 2941 2940 2941 2940 2940 2939 2938 2938 2938 2938 2938 2939 2940 2939 2939 2939 2937 2938 2938 2938 2938 2937 2937
Wind_Speed
17 17 18 20 23 25 27 29 29 29 28 28 27 27 29 28 29 28 28 27 26 24 25 25 25 26 28 31 34 35 28 21 19 21 25 26 28 30 32 31 29 33 34 32 29 26 30
18 19 20 22 25 28 30 30 30 30 30 29 29 29 29 30 29 30 29 28 28 27 26 26 27 26 28 31 32 32 34 34 35 33 35 35 32 29 26 23 22 15 18 32 33 35 34
19 21 23 25 27 29 30 31 32 32 33 34 34 33 33 32 32 31 30 30 28 27 26 26 26 28 29 22 27 28 30 31 32 29 29 27 26 24 22 27 30 33 33 35 35 33 34
21 23 25 27 29 31 32 32 33 34 35 36 38 37 36 35 33 32 30 30 29 27 26 26 27 27 27 23 25 26 27 31 33 32 30 30 30 33 32 25 17 21 27 30 34 19 20
22 24 26 28 30 32 32 32 33 35 38 40 41 40 39 36 33 31 29 28 28 26 24 24 23 24 26 18 17 19 21 25 26 28 29 30 31 33 32 31 29 22 25 21 20 17 24
24 25 27 29 31 33 35 35 37 39 40 42 43 43 42 39 34 30 27 26 24 21 20 19 20 13 17 21 19 18 17 17 20 23 26 28 29 30 28 26 28 26 27 26 24 17 23
24 26 28 30 31 33 35 37 39 40 40 41 44 43 40 36 32 29 26 25 26 25 21 18 26 26 28 29 25 24 21 17 16 17 19 22 27 31 34 31 33 25 25 30 25 17 22
25 27 28 30 32 34 36 39 40 41 42 42 43 40 35 32 29 27 26 25 24 27 30 24 22 23 21 20 18 16 16 19 17 17 14 14 25 24 21 20 26 30 32 34 27 22 23
26 28 29 32 33 35 37 39 42 44 46 49 47 40 34 31 30 27 26 24 24 27 29 23 15 12 9 10 11 9 9 12 21 19 23 27 23 12 15 24 24 29 28 21 20 17 19
29 30 31 33 36 37 39 41 43 44 45 47 44 37 34 31 29 27 28 27 26 28 18 10 6 5 7 7 8 8 8 8 11 9 8 15 15 29 23 15 15 15 18 21 23 17 6
30 32 34 35 37 39 40 42 43 44 45 45 38 34 33 32 29 27 27 26 27 25 6 7 7 8 9 8 8 8 8 12 11 9 13 11 15 15 18 19 18 17 16 13 13 12 16
32 34 36 38 40 42 43 45 45 46 45 39 36 35 35 32 33 30 29 28 28 9 7 6 7 7 8 11 14 15 18 20 22 22 23 24 25 20 18 15 16 17 14 11 14 10 6
34 37 39 42 43 45 46 47 49 49 43 36 34 35 35 35 33 30 28 27 15 7 6 5 6 9 13 20 17 19 17 16 13 5 8 10 18 22 23 22 20 17 8 2 1 2 5
37 39 41 44 46 48 51 52 52 46 41 39 35 36 35 35 39 30 30 25 8 8 9 14 17 22 18 14 11 11 10 9 13 13 14 9 9 12 11 18 9 10 13 5 4 4 2
39 41 43 46 48 50 52 54 51 48 47 47 47 42 40 40 28 33 25 14 11 12 14 26 29 12 6 7 6 11 6 12 16 16 10 5 9 9 9 9 14 10 11 14 5 10 3
41 44 46 47 50 52 54 50 48 49 52 55 55 54 41 34 29 22 19 10 4 10 24 23 13 7 11 17 18 9 6 8 14 12 15 9 10 11 10 13 12 13 9 4 6 2 4
43 46 48 51 53 53 50 49 50 51 52 54 55 53 41 29 24 10 8 9 16 27 24 16 11 18 16 17 15 13 7 11 16 13 12 10 10 4 6 8 10 12 14 9 6 6 3
46 49 52 52 49 48 49 51 53 53 53 52 51 45 36 32 13 1 5 18 24 20 21 18 13 10 14 13 12 7 7 11 8 6 5 8 5 5 5 6 9 11 12 10 6 2 1
50 53 51 49 50 51 54 54 53 49 45 46 44 45 29 23 9 9 23 19 19 20 20 17 15 16 15 15 9 6 5 9 13 7 1 6 5 2 5 7 11 8 11 15 14 12 7
53 51 50 52 54 54 52 50 46 43 40 39 37 28 30 22 5 22 28 21 17 21 18 14 15 13 12 11 9 12 20 16 18 17 16 19 11 10 8 11 14 10 9 9 8 6 8
52 52 55 56 54 49 47 48 46 43 36 31 30 33 26 23 35 23 26 25 25 21 14 14 14 10 13 15 18 17 8 14 20 22 16 11 15 17 19 20 23 20 15 19 18 20 18
54 55 56 51 49 49 50 47 41 36 28 27 28 27 33 29 25 35 17 28 30 21 18 20 13 15 17 20 21 22 21 18 22 20 17 12 10 10 16 15 16 18 19 21 21 19 20
56 51 50 50 49 45 44 42 38 28 23 26 27 28 30 34 33 31 33 28 23 16 26 21 14 14 17 17 21 23 22 25 26 23 21 20 13 8 5 6 3 10 13 16 18 14 14
49 50 47 45 44 43 42 39 35 24 24 26 23 25 27 34 32 34 31 31 34 28 29 22 13 18 20 21 22 18 19 18 16 19 21 24 20 13 10 5 2 4 3 5 6 6 7
46 45 45 45 46 44 43 39 32 26 24 25 24 27 28 30 27 29 22 24 30 30 23 21 14 16 17 17 17 14 14 12 8 9 17 22 23 11 5 5 11 7 7 5 7 3 5
45 47 48 49 49 47 44 40 34 27 24 25 25 26 27 29 25 25 28 32 23 21 11 12 15 10 13 14 12 5 3 4 3 3 2 7 17 13 6 3 1 5 7 3 8 5 5
48 51 52 53 50 47 44 39 34 27 27 27 26 25 27 26 25 25 26 22 27 13 11 11 13 11 14 6 9 10 5 3 3 3 4 8 9 19 12 6 4 4 7 9 2 5 3
50 53 54 52 47 41 35 31 30 27 23 24 24 23 21 20 23 23 23 14 14 11 6 11 11 8 3 6 5 4 3 2 2 2 2 2 4 9 9 5 5 7 3 5 4 12 17
49 53 54 49 39 34 30 26 25 21 19 20 22 23 11 20 25 22 19 22 11 8 12 11 14 17 9 6 6 4 5 5 6 3 6 4 7 5 4 4 6 8 10 14 20 25 24
Wind_Direction
356 352 349 344 341 340 339 339 340 341 341 340 338 336 332 332 329 326 324 322 320 315 310 303 295 285 275 270 270 261 254 251 239 230 235 243 259 259 252 255 249 249 259 258 259 259 258
349 343 340 337 336 337 337 338 340 339 339 338 335 335 333 329 327 324 322 320 317 314 309 304 299 291 281 278 272 268 257 249 251 251 248 252 256 253 247 245 232 248 259 260 261 258 256
339 337 335 334 334 335 337 338 339 338 338 338 337 335 334 334 330 322 318 316 312 307 302 298 294 292 284 281 273 270 265 260 254 251 249 244 237 227 243 243 239 238 246 248 249 257 259
339 334 332 333 334 336 338 339 340 340 338 336 336 336 334 332 326 324 318 313 308 306 304 300 298 293 291 285 276 267 260 257 256 253 249 246 240 237 231 227 250 257 244 257 261 267 265
333 331 333 333 334 335 337 339 339 340 338 337 336 335 333 332 329 325 322 317 311 310 308 305 299 295 293 288 288 282 272 259 254 250 246 245 243 243 241 242 248 244 248 254 277 249 247
334 332 330 332 335 335 336 339 340 340 340 339 338 337 334 333 331 330 328 322 314 312 310 306 301 299 284 290 287 283 280 268 259 251 245 241 239 239 233 222 224 236 239 254 258 249 239
331 331 332 333 333 333 335 336 339 340 340 339 339 338 337 334 335 335 332 325 328 324 323 311 296 284 279 288 283 280 269 258 246 237 235 238 231 227 240 242 248 240 252 266 261 274 257
329 328 329 331 332 333 335 336 337 338 337 337 338 338 337 334 337 339 338 335 335 327 319 309 294 281 279 282 280 274 258 248 241 245 227 232 241 246 246 240 245 257 260 260 267 251 261
326 327 329 329 330 332 334 335 336 338 339 339 340 339 339 337 338 339 340 339 335 329 321 311 300 287 273 279 277 286 269 257 242 250 241 240 249 252 274 247 248 245 249 253 256 250 242
329 327 327 328 329 332 331 333 335 337 337 337 336 336 337 339 339 342 339 339 337 334 315 301 311 272 264 281 257 274 273 251 232 252 237 251 254 248 270 251 236 246 240 241 247 258 260
326 325 326 327 329 329 330 331 333 333 334 334 333 332 336 338 338 334 334 333 334 333 327 290 284 275 267 263 274 277 270 252 246 235 237 237 247 244 255 250 237 233 236 240 244 254 273
325 325 326 327 328 328 330 331 330 331 332 332 331 331 331 333 335 334 335 329 330 323 249 267 282 285 287 280 276 272 277 272 268 263 256 259 257 258 257 254 234 236 250 271 279 263 242
325 326 328 328 328 328 328 328 329 329 331 331 330 329 328 327 327 323 325 327 322 239 286 297 285 287 296 301 277 282 283 279 262 275 271 290 267 267 261 259 252 250 243 228 249 175 239
327 327 326 326 326 328 328 329 330 331 330 327 326 323 322 318 320 316 322 323 265 278 286 277 300 304 311 283 296 263 282 264 262 255 277 306 285 255 250 238 232 224 202 202 240 178 190
325 325 325 325 326 326 327 328 328 328 326 324 321 320 321 322 319 317 314 305 279 303 311 320 320 325 289 300 323 318 309 267 258 257 238 249 246 244 251 208 208 213 226 238 270 299 286
324 325 323 323 324 325 326 326 326 326 324 322 322 325 335 328 328 318 312 267 270 322 321 326 322 311 315 312 323 307 290 263 270 270 248 239 262 249 241 233 224 221 210 204 207 219 232
323 320 321 323 323 324 326 325 323 322 322 321 322 326 336 336 334 309 304 261 292 309 323 328 289 290 301 306 286 286 269 284 288 259 248 247 240 235 228 228 227 220 217 215 221 250 201
320 322 322 323 324 324 323 322 321 322 322 320 323 324 334 337 5 334 291 317 315 319 320 311 298 293 288 292 309 302 264 297 305 286 294 261 257 244 242 265 237 240 232 233 206 176 183
321 321 322 323 323 323 321 320 320 320 322 319 321 321 335 332 341 247 314 304 324 321 327 320 308 295 296 302 303 264 251 296 303 270 260 323 240 239 201 230 255 265 269 250 242 251 262
321 322 322 322 321 321 319 320 321 321 322 318 317 318 317 313 271 308 313 297 307 308 311 320 326 316 303 285 264 287 289 298 291 288 277 298 277 245 241 266 297 287 273 265 253 235 250
322 323 323 321 321 323 321 319 319 319 319 316 314 306 306 292 301 306 296 283 302 294 277 292 304 302 279 287 292 297 284 280 289 297 298 270 261 277 274 268 265 277 265 257 257 258 254
322 322 322 324 321 322 322 322 321 321 318 312 307 308 299 302 297 305 292 297 293 287 259 278 281 300 275 275 284 285 285 285 291 292 283 269 265 272 271 262 264 268 268 267 261 256 256
322 325 324 321 321 323 323 324 325 328 315 310 303 300 296 296 303 301 298 298 287 267 280 252 275 289 280 291 300 278 282 280 280 272 262 268 268 290 241 261 288 278 282 266 247 247 246
325 324 322 323 323 322 321 321 322 319 308 307 306 303 300 299 300 297 305 300 300 274 270 261 284 278 278 284 302 291 285 291 277 268 256 250 261 251 267 263 228 237 228 144 178 218 239
326 326 326 324 321 319 318 317 314 309 303 302 301 298 297 297 303 310 316 302 308 311 287 267 291 281 279 294 296 301 310 293 259 266 251 246 234 233 258 218 267 289 183 146 136 191 230
330 327 325 322 320 317 315 312 309 303 298 294 297 297 298 301 312 314 311 315 313 302 244 317 299 280 288 298 288 275 284 305 298 288 264 201 209 203 205 227 264 174 170 310 327 228 223
329 328 325 321 319 317 312 306 303 298 291 287 289 298 299 286 308 316 311 298 312 284 304 300 284 284 300 267 279 281 293 254 286 274 156 154 193 214 244 263 259 245 269 289 221 175 212
333 330 327 326 325 324 320 317 318 315 304 296 295 302 295 305 314 322 328 312 288 297 300 309 307 330 272 263 283 302 279 306 277 357 50 82 179 212 225 244 242 245 227 210 219 300 305
339 336 333 330 327 327 327 325 320 316 312 308 310 308 297 322 318 316 305 292 256 268 279 278 277 288 270 277 284 280 306 296 306 301 298 292 229 266 285 241 272 270 273 276 292 296 294